| time (UTC) | temp F | wind direction | speed knots | gust knots | rain 1hr in | rain 24hr in | rain mn in | humidity % | barometer mb |
| 20260506201536 | 74 | 276 | 0.9 | 5.2 | 0.00 | 0.00 | 0.00 | 57 | 1019.7 |
| 20260506200055 | 74 | 283 | 0.0 | 4.3 | 0.00 | 0.00 | 0.00 | 60 | 1019.9 |
| 20260506194523 | 73 | 57 | 0.0 | 1.7 | 0.00 | 0.00 | 0.00 | 62 | 1020.1 |
| 20260506193009 | 71 | 284 | 0.9 | 7.0 | 0.00 | 0.00 | 0.00 | 62 | 1020.2 |
| 20260506191551 | 70 | 298 | 0.9 | 4.3 | 0.00 | 0.00 | 0.00 | 63 | 1020.4 |
| 20260506190002 | 69 | 290 | 0.9 | 7.8 | 0.00 | 0.00 | 0.00 | 65 | 1020.4 |
| 20260506184532 | 68 | 283 | 0.0 | 6.1 | 0.00 | 0.00 | 0.00 | 67 | 1020.6 |
| 20260506183114 | 66 | 302 | 0.0 | 6.1 | 0.00 | 0.00 | 0.00 | 70 | 1020.6 |
| 20260506181521 | 64 | 179 | 0.0 | 0.9 | 0.00 | 0.00 | 0.00 | 74 | 1020.7 |
| 20260506180057 | 63 | 286 | 0.0 | 4.3 | 0.00 | 0.00 | 0.00 | 75 | 1020.7 |
| 20260506174532 | 62 | 279 | 0.0 | 6.1 | 0.00 | 0.00 | 0.00 | 74 | 1020.8 |
| 20260506173102 | 61 | 300 | 0.0 | 4.3 | 0.00 | 0.00 | 0.00 | 75 | 1020.8 |
| 20260506171554 | 60 | 65 | 0.0 | 0.9 | 0.00 | 0.00 | 0.00 | 75 | 1020.9 |
| 20260506170024 | 59 | 63 | 0.0 | 3.5 | 0.00 | 0.00 | 0.00 | 74 | 1021.0 |
| 20260506164552 | 58 | 306 | 0.0 | 0.0 | 0.00 | 0.00 | 0.00 | 74 | 1021.0 |
| 20260506163024 | 57 | 96 | 0.0 | 0.0 | 0.00 | 0.00 | 0.00 | 62 | 1021.1 |
| 20260506161605 | 56 | 100 | 0.0 | 0.0 | 0.00 | 0.00 | 0.00 | 49 | 1021.1 |
| 20260506160044 | 55 | 107 | 0.0 | 0.0 | 0.00 | 0.00 | 0.00 | 36 | 1021.1 |
| 20260506154523 | 54 | 106 | 0.0 | 0.0 | 0.00 | 0.00 | 0.00 | 35 | 1021.2 |
| 20260506153108 | 53 | 106 | 0.0 | 0.9 | 0.00 | 0.00 | 0.00 | 36 | 1021.2 |
| 20260506151543 | 53 | 106 | 0.0 | 0.0 | 0.00 | 0.00 | 0.00 | 39 | 1021.2 |
| 20260506150019 | 52 | 106 | 0.0 | 0.0 | 0.00 | 0.00 | 0.00 | 41 | 1021.3 |
| 20260506144556 | 52 | 106 | 0.0 | 0.0 | 0.00 | 0.00 | 0.00 | 43 | 1021.2 |
| 20260506143009 | 52 | 106 | 0.0 | 0.0 | 0.00 | 0.00 | 0.00 | 45 | 1021.1 |
| 20260506141534 | 52 | 106 | 0.0 | 0.0 | 0.00 | 0.00 | 0.00 | 46 | 1020.9 |
| 20260506140111 | 52 | 106 | 0.0 | 0.0 | 0.00 | 0.00 | 0.00 | 48 | 1020.7 |
| 20260506134538 | 52 | 106 | 0.0 | 0.0 | 0.00 | 0.00 | 0.00 | 50 | 1020.6 |
| 20260506133102 | 52 | 106 | 0.0 | 0.0 | 0.00 | 0.00 | 0.00 | 51 | 1020.6 |
| 20260506131543 | 53 | 106 | 0.0 | 0.0 | 0.00 | 0.00 | 0.00 | 49 | 1020.4 |
| 20260506130027 | 53 | 106 | 0.0 | 0.0 | 0.00 | 0.00 | 0.00 | 48 | 1020.3 |
| 20260506124501 | 53 | 106 | 0.0 | 0.0 | 0.00 | 0.00 | 0.00 | 46 | 1020.2 |
| 20260506123050 | 53 | 106 | 0.0 | 0.0 | 0.00 | 0.00 | 0.00 | 46 | 1020.2 |
| 20260506121508 | 53 | 106 | 0.0 | 0.0 | 0.00 | 0.00 | 0.00 | 46 | 1020.0 |
| 20260506120033 | 53 | 106 | 0.0 | 0.0 | 0.00 | 0.00 | 0.00 | 46 | 1020.0 |
| 20260506114533 | 53 | 106 | 0.0 | 0.0 | 0.00 | 0.00 | 0.00 | 47 | 1020.0 |
| 20260506113042 | 53 | 106 | 0.0 | 0.0 | 0.00 | 0.00 | 0.00 | 47 | 1019.9 |
| 20260506111511 | 53 | 106 | 0.0 | 0.0 | 0.00 | 0.00 | 0.00 | 47 | 1019.7 |
| 20260506110056 | 53 | 106 | 0.0 | 0.0 | 0.00 | 0.00 | 0.00 | 47 | 1019.6 |
| 20260506104537 | 53 | 106 | 0.0 | 0.0 | 0.00 | 0.00 | 0.00 | 47 | 1019.5 |
| 20260506103005 | 53 | 106 | 0.0 | 0.0 | 0.00 | 0.00 | 0.00 | 46 | 1019.5 |
| 20260506101531 | 53 | 106 | 0.0 | 0.0 | 0.00 | 0.00 | 0.00 | 46 | 1019.5 |
| 20260506100105 | 52 | 106 | 0.0 | 0.0 | 0.00 | 0.00 | 0.00 | 46 | 1019.5 |
| 20260506094520 | 52 | 106 | 0.0 | 0.0 | 0.00 | 0.00 | 0.00 | 47 | 1019.4 |
| 20260506093042 | 52 | 106 | 0.0 | 0.0 | 0.00 | 0.00 | 0.00 | 47 | 1019.4 |
| 20260506091556 | 52 | 106 | 0.0 | 0.0 | 0.00 | 0.02 | 0.00 | 49 | 1019.5 |
| 20260506090033 | 51 | 106 | 0.0 | 0.0 | 0.00 | 0.02 | 0.00 | 53 | 1019.5 |
| 20260506084600 | 51 | 106 | 0.0 | 0.0 | 0.00 | 0.02 | 0.00 | 56 | 1019.4 |
| 20260506083009 | 51 | 106 | 0.0 | 1.7 | 0.00 | 0.02 | 0.00 | 59 | 1019.4 |
| 20260506081545 | 51 | 106 | 0.0 | 0.0 | 0.00 | 0.07 | 0.00 | 62 | 1019.5 |
| 20260506073110 | 53 | 107 | 0.0 | 0.0 | 0.00 | 0.07 | 0.00 | 71 | 1019.3 |
| 20260506071552 | 53 | 107 | 0.0 | 0.0 | 0.00 | 0.11 | 0.07 | 72 | 1019.1 |
| 20260506061518 | 53 | 112 | 0.0 | 3.5 | 0.00 | 0.12 | 0.07 | 72 | 1018.6 |
| 20260506044511 | 55 | 95 | 0.0 | 4.3 | 0.00 | 0.14 | 0.07 | 76 | 1018.1 |
| 20260506043039 | 56 | 90 | 2.6 | 4.3 | 0.00 | 0.14 | 0.07 | 76 | 1017.7 |
| 20260506041512 | 56 | 86 | 0.0 | 4.3 | 0.00 | 0.14 | 0.07 | 76 | 1017.6 |
| 20260506040041 | 57 | 90 | 0.0 | 4.3 | 0.00 | 0.14 | 0.07 | 77 | 1017.5 |
| 20260506034504 | 57 | 90 | 2.6 | 7.0 | 0.00 | 0.14 | 0.07 | 77 | 1017.3 |
| 20260506033045 | 57 | 80 | 0.9 | 7.0 | 0.00 | 0.14 | 0.07 | 76 | 1017.1 |
| 20260506031530 | 58 | 103 | 0.0 | 4.3 | 0.00 | 0.14 | 0.07 | 76 | 1016.8 |
| 20260506030125 | 58 | 109 | 0.9 | 6.1 | 0.00 | 0.14 | 0.07 | 76 | 1016.7 |
| 20260506024530 | 58 | 94 | 2.6 | 7.8 | 0.00 | 0.14 | 0.07 | 75 | 1016.6 |
| 20260506023007 | 58 | 128 | 0.0 | 7.0 | 0.00 | 0.14 | 0.07 | 75 | 1016.5 |
| 20260506021527 | 59 | 72 | 0.9 | 8.7 | 0.00 | 0.14 | 0.07 | 74 | 1016.3 |
| 20260506020110 | 60 | 78 | 2.6 | 9.6 | 0.00 | 0.14 | 0.07 | 74 | 1016.1 |
| 20260506014612 | 61 | 306 | 1.7 | 8.7 | 0.00 | 0.14 | 0.07 | 72 | 1016.1 |
| 20260506013045 | 62 | 142 | 2.6 | 7.8 | 0.00 | 0.14 | 0.07 | 72 | 1015.9 |
| 20260506011537 | 62 | 90 | 1.7 | 8.7 | 0.00 | 0.14 | 0.07 | 71 | 1016.1 |
| 20260506010006 | 63 | 47 | 0.0 | 3.5 | 0.00 | 0.14 | 0.07 | 72 | 1016.0 |
| 20260506004547 | 62 | 184 | 0.0 | 5.2 | 0.00 | 0.14 | 0.07 | 75 | 1015.8 |
| 20260506003011 | 60 | 105 | 1.7 | 6.1 | 0.00 | 0.14 | 0.07 | 75 | 1015.7 |
| 20260506001531 | 60 | 66 | 0.9 | 7.0 | 0.00 | 0.14 | 0.07 | 75 | 1015.8 |
| 20260506000022 | 60 | 49 | 0.9 | 7.8 | 0.00 | 0.14 | 0.07 | 75 | 1015.6 |
| 20260505234610 | 61 | 84 | 0.9 | 7.8 | 0.00 | 0.14 | 0.07 | 75 | 1015.8 |
| 20260505233045 | 61 | 82 | 1.7 | 7.0 | 0.00 | 0.14 | 0.07 | 75 | 1015.7 |
| 20260505231528 | 61 | 95 | 0.9 | 6.1 | 0.00 | 0.14 | 0.07 | 75 | 1015.8 |
| 20260505230106 | 60 | 175 | 0.0 | 0.0 | 0.00 | 0.14 | 0.07 | 75 | 1015.8 |
| 20260505224543 | 60 | 225 | 0.0 | 4.3 | 0.00 | 0.14 | 0.07 | 75 | 1015.8 |
| 20260505223111 | 60 | 134 | 0.9 | 6.1 | 0.00 | 0.14 | 0.07 | 75 | 1015.8 |
| 20260505221541 | 60 | 113 | 0.0 | 4.3 | 0.00 | 0.14 | 0.07 | 76 | 1015.9 |
| 20260505220027 | 60 | 325 | 0.0 | 4.3 | 0.00 | 0.14 | 0.07 | 76 | 1015.9 |
| 20260505214611 | 60 | 100 | 0.0 | 4.3 | 0.00 | 0.14 | 0.07 | 75 | 1016.0 |
| 20260505213045 | 60 | 119 | 0.0 | 5.2 | 0.00 | 0.14 | 0.07 | 76 | 1016.1 |
| 20260505211525 | 60 | 86 | 0.9 | 5.2 | 0.00 | 0.14 | 0.07 | 76 | 1016.2 |
| 20260505210008 | 59 | 71 | 0.0 | 3.5 | 0.00 | 0.14 | 0.07 | 75 | 1016.1 |
| 20260505204544 | 59 | 78 | 0.0 | 4.3 | 0.00 | 0.14 | 0.07 | 76 | 1016.3 |
| 20260505203024 | 59 | 129 | 0.0 | 4.3 | 0.00 | 0.14 | 0.07 | 75 | 1016.3 |